sat.trackr.live / text

‹ back to catalog

STARLINK-2428

NORAD 48099 · 2021-027H

PAYLOAD ACTIVE UNKNOWN

§ Identity

Operator
Country
US
Launch date
2021-04-07
Launch site
AFETR
Launch vehicle
Mass (kg)
RCS (m²)

Purposes: comms

External: N2YO · Heavens-Above · Gunter

§ Orbital elements

Epoch: 2026-09-19T22:05:03.192576Z

Period
94.01 min
Inclination
53.1608°
Eccentricity
0.0001392
Mean motion
15.31708509 rev/d
Perigee alt
469.8 km
Apogee alt
471.7 km
Semi-major
6,848.9 km
B*
6.0575e-5
RAAN
343.8809°
Arg perigee
80.2514°
Mean anomaly
279.8645°
Rev number
30,223

§ Raw data

STARLINK-24281 48099U 21027H   26262.92017584  .00001515  00000+0  60575-4 0  99942 48099  53.1608 343.8809 0001392  80.2514 279.8645 15.31708509302235

JSON: /api/v1/satellites/48099 · /tle

For live sub-satellite position, see the globe view (requires WebGL).

§ Visibility from observer

Set your observer location to see the next 7 days of passes ≥ 10°. The values pass through the URL so the page stays shareable.

No JS? Fill the form by hand. The geolocation button needs JavaScript.